Wind_Speed
8 6 2 10 6 8 17 17 7 5 2 6 6 5 11 11 8 4 5 3 6 4 10 11 18 23 22 23 23 23 23 23 22 20 21 21 21 21 20 21 23 25 25 26 23 20 21 22 24
7 6 8 9 8 11 14 7 4 2 11 9 2 7 10 4 10 6 6 3 3 5 9 14 21 23 22 23 24 25 25 25 25 23 23 22 22 21 22 23 24 24 25 24 21 20 21 21 22
10 9 10 5 12 13 16 6 3 5 6 4 3 6 7 3 10 4 2 6 5 4 10 13 16 24 23 25 26 26 27 28 27 25 24 24 23 23 21 22 23 23 23 23 21 21 22 22 23
8 10 10 7 18 22 24 6 5 3 5 8 6 8 3 5 4 4 4 6 5 4 6 15 18 23 25 26 26 27 29 30 31 30 28 26 26 25 24 21 20 21 21 22 22 23 25 24 24
13 13 11 15 20 24 16 2 6 6 6 2 9 5 7 5 4 4 2 6 5 6 10 14 19 20 26 26 24 25 28 34 34 31 30 30 29 27 24 22 20 18 21 22 23 26 25 25 29
15 16 13 14 21 23 8 4 2 7 7 11 12 7 4 7 6 5 6 5 7 9 12 17 19 19 20 24 22 25 38 33 35 34 31 30 29 27 24 22 20 20 20 22 26 25 24 25 29
19 13 18 20 19 22 8 11 3 7 12 7 5 1 5 9 6 5 3 5 7 14 13 16 20 24 24 28 30 28 22 28 37 36 32 29 27 26 24 23 21 21 21 23 26 26 26 28 32
25 13 22 19 16 20 6 10 5 9 9 1 4 4 4 9 9 4 4 8 11 12 12 12 22 23 23 23 30 23 25 25 30 40 34 31 27 26 25 22 21 22 23 25 27 26 27 31 31
26 15 16 21 21 20 14 8 10 15 10 12 10 10 5 7 5 4 6 13 10 8 11 12 17 21 17 20 19 20 22 38 26 38 35 32 30 27 24 23 24 25 26 26 26 26 28 28 29
20 16 24 21 21 13 12 10 10 11 15 17 17 13 12 8 7 8 9 10 10 9 9 11 12 13 13 13 16 12 12 21 35 39 38 35 33 29 28 26 28 28 27 26 25 26 27 28 31
28 22 22 23 27 10 14 14 12 12 10 12 3 6 5 8 7 9 8 9 9 9 9 12 13 12 13 14 9 17 19 18 23 36 38 36 34 32 30 30 30 29 27 27 25 26 27 33 29
25 31 29 30 30 19 10 21 14 17 12 12 16 5 7 7 9 10 8 7 8 9 11 11 11 12 13 10 9 13 17 21 37 35 37 34 36 34 31 33 33 32 29 28 26 27 25 30 21
26 25 31 31 29 23 19 16 17 19 15 17 13 8 8 10 10 9 7 6 8 9 9 10 13 13 11 9 3 6 18 16 39 38 32 35 37 35 32 35 34 32 31 28 27 23 18 19 14
30 29 28 30 29 22 18 19 19 23 20 22 10 8 11 12 11 9 8 6 7 10 8 13 13 14 8 7 6 7 19 23 37 36 29 34 33 31 31 37 35 33 29 29 26 20 19 17 15
31 25 22 23 23 24 22 20 20 25 21 20 17 11 14 13 11 10 8 8 12 12 12 13 18 14 8 10 11 15 15 19 30 41 38 34 35 28 33 37 36 31 27 28 22 21 20 19 16
21 19 20 21 21 21 21 20 19 27 25 24 11 16 16 15 13 11 10 10 11 13 16 15 13 12 9 12 18 15 17 17 32 35 40 36 34 29 29 33 33 29 23 22 20 24 21 20 18
14 16 21 23 22 21 21 21 19 24 8 14 17 18 17 16 15 13 12 12 13 15 16 17 16 13 11 10 13 16 18 24 30 41 38 42 41 31 30 29 27 29 27 25 23 22 22 22 20
15 19 20 20 20 22 19 18 13 22 14 13 15 18 18 19 18 17 15 14 14 16 15 15 16 13 15 12 10 12 15 20 34 40 45 39 39 35 30 25 33 31 24 27 21 22 22 22 20
15 18 24 23 20 16 17 16 16 17 18 18 21 17 15 19 16 18 17 16 17 19 20 18 18 17 18 15 16 12 17 37 39 38 43 48 39 39 35 26 30 29 27 27 24 23 22 18 21
20 19 23 25 16 1 9 13 15 16 12 15 19 20 19 16 20 21 20 19 21 21 19 21 23 20 18 16 16 17 23 34 38 39 41 46 41 45 37 33 33 34 28 27 28 24 23 18 22
19 20 20 23 20 14 10 15 17 19 18 18 21 13 15 21 23 26 23 22 21 22 21 20 23 23 17 19 21 22 25 33 37 36 37 39 44 42 40 33 26 27 28 26 27 27 24 26 25
19 19 23 23 19 12 14 12 15 17 19 17 17 17 17 17 22 30 27 25 25 23 23 18 18 25 22 24 27 25 34 39 43 43 39 39 39 42 40 38 33 31 31 30 26 24 28 25 27
17 12 19 22 17 16 19 11 12 14 15 17 19 20 26 25 20 28 29 27 25 23 25 19 19 22 24 27 30 28 35 35 41 44 44 42 40 41 40 41 39 36 35 29 31 30 31 30 26
18 6 24 21 14 14 18 16 12 14 14 14 9 11 13 27 23 22 27 26 25 25 27 25 24 18 28 28 31 33 34 36 44 51 49 45 44 45 47 37 41 36 36 36 32 31 31 32 33
18 13 8 7 12 11 16 14 12 14 9 3 4 6 8 17 20 20 28 28 28 28 28 22 27 23 25 32 32 31 34 37 41 49 52 50 49 49 50 42 43 40 39 39 36 36 36 34 32
13 16 8 6 4 14 19 9 15 17 15 3 2 3 6 16 18 19 25 27 29 31 29 26 28 27 27 32 36 34 34 34 40 41 48 54 54 57 55 52 50 44 44 41 39 38 39 32 34
18 20 25 17 12 8 9 18 11 5 5 6 8 9 10 11 19 19 21 28 28 31 30 28 28 25 28 31 35 38 36 37 38 40 44 50 54 52 52 54 53 55 48 50 46 48 48 42 38
17 13 12 6 4 6 4 8 2 9 9 7 5 4 4 5 8 25 24 28 30 29 28 29 27 28 27 29 33 37 40 39 38 39 39 45 49 50 54 53 51 56 52 47 46 47 50 47 43
14 15 12 12 11 4 1 5 4 5 7 9 10 7 5 7 5 15 22 26 28 26 27 29 29 26 30 28 28 36 40 40 43 42 41 42 41 48 53 55 52 49 52 51 52 50 47 51 53
14 17 15 6 13 12 9 1 5 5 11 12 8 20 17 11 10 5 9 18 26 24 25 28 28 29 29 28 27 28 36 40 43 41 40 41 41 38 43 53 50 52 53 52 54 54 53 51 54
Wind_Direction
234 237 278 272 250 235 263 259 74 360 210 77 19 314 342 321 340 41 117 29 111 197 270 224 203 203 195 199 199 196 192 190 184 180 172 162 158 155 151 146 143 142 141 138 138 141 136 135 136
207 230 255 279 248 270 271 118 111 189 61 73 283 260 250 249 55 67 77 51 12 158 258 228 207 205 201 203 203 203 200 195 188 185 176 168 160 157 151 149 152 151 148 149 150 145 139 136 134
196 205 251 232 247 247 272 77 24 71 78 275 265 242 258 75 64 46 308 294 277 190 223 253 217 212 208 208 208 208 206 201 195 188 177 171 163 159 157 162 161 161 156 156 157 148 142 137 131
191 218 244 252 260 275 283 322 61 313 204 183 269 312 89 132 117 177 271 318 291 284 206 244 242 223 216 210 210 209 212 206 199 190 179 173 168 162 160 166 167 162 155 154 155 149 143 141 135
225 248 237 252 264 263 268 179 318 287 270 360 302 279 319 138 180 299 280 276 265 260 211 229 240 236 225 219 211 207 221 209 199 190 183 176 170 164 165 169 168 165 163 159 150 147 145 143 135
218 225 253 253 258 260 221 124 236 253 261 259 206 251 345 182 151 208 284 275 262 242 241 231 226 232 231 221 212 209 219 205 196 188 181 176 172 168 167 172 170 161 161 157 149 146 151 149 142
239 234 240 256 273 294 261 147 189 239 250 277 65 253 278 150 197 225 199 235 249 253 262 222 229 227 227 222 225 219 251 202 193 184 183 181 174 171 171 171 174 168 162 152 151 149 149 143 142
233 250 257 262 271 278 287 132 204 241 263 88 321 290 101 153 220 262 216 243 275 258 262 241 227 233 237 237 230 232 254 244 212 183 184 181 173 174 174 171 170 166 157 154 152 147 149 145 142
232 247 251 249 257 264 149 171 213 237 248 281 252 221 183 175 203 233 216 266 282 278 268 259 243 242 242 242 228 262 268 231 260 184 178 176 172 174 170 168 161 162 157 155 154 150 150 146 142
233 242 242 255 267 298 310 174 230 220 234 231 240 221 201 194 210 241 255 258 254 269 263 249 250 236 221 207 243 235 248 249 260 185 176 174 171 167 170 162 159 158 153 154 151 151 149 145 139
238 241 252 257 250 316 287 282 231 242 245 261 310 305 165 186 213 240 252 260 248 226 266 245 235 222 213 215 235 239 214 232 226 179 173 173 171 168 167 160 162 157 155 152 151 151 151 145 142
243 245 244 259 277 282 257 276 274 261 236 262 276 189 251 219 228 241 256 255 258 273 266 232 217 187 204 223 235 226 216 189 188 176 170 171 168 167 171 166 166 161 160 157 155 150 150 150 133
249 251 250 253 262 267 269 252 268 268 262 266 261 180 228 221 226 230 236 253 247 259 226 200 205 194 221 209 226 200 188 198 188 167 167 173 170 169 171 171 169 165 165 160 150 143 161 158 134
254 254 251 255 253 261 250 257 251 258 257 258 220 202 230 221 220 213 218 230 218 231 211 200 205 214 207 210 189 190 165 157 173 162 170 170 171 170 175 171 172 169 169 160 147 147 172 165 170
252 271 276 250 252 253 249 253 244 254 256 255 227 209 227 210 214 217 220 218 231 202 189 198 204 205 214 198 185 184 171 173 189 176 176 168 171 174 178 177 172 170 172 167 148 173 172 173 177
261 255 259 257 246 244 244 259 257 250 236 226 219 219 210 203 215 216 208 204 220 190 197 204 198 210 239 239 201 184 195 205 185 185 185 176 168 174 176 178 181 172 172 168 167 177 173 177 177
266 256 246 247 255 241 217 242 248 258 248 182 222 225 200 202 204 209 203 198 196 192 203 200 194 207 219 196 193 202 207 207 210 196 190 179 173 177 174 173 171 175 188 176 189 187 177 181 182
229 233 247 258 236 231 239 228 244 270 199 212 234 255 204 192 206 199 196 193 197 197 208 218 206 194 192 197 190 198 204 209 213 202 191 179 169 175 175 174 177 189 183 174 184 180 188 187 184
255 280 290 288 236 240 209 240 251 239 235 202 209 220 245 192 194 192 189 194 187 211 198 211 195 196 198 201 177 186 187 182 192 188 177 173 174 178 181 183 186 192 193 186 184 182 190 190 188
246 260 272 278 272 261 268 251 259 265 254 250 207 200 208 206 181 182 186 192 190 211 212 208 212 212 198 201 194 184 180 186 187 170 175 177 179 186 185 184 185 193 189 189 189 190 190 187 199
238 248 259 270 285 273 220 266 263 262 265 242 246 202 214 198 181 177 184 192 194 202 214 208 208 200 202 194 184 183 177 173 171 168 168 175 184 195 197 198 205 204 193 192 194 196 203 199 204
237 242 257 267 273 265 246 258 263 232 226 237 226 202 206 243 187 179 184 192 199 196 220 215 218 208 204 196 195 187 180 180 182 180 177 181 192 201 206 204 215 206 199 201 206 211 212 207 211
260 289 291 285 260 267 265 268 268 276 273 214 216 204 207 202 203 178 186 193 196 193 208 221 208 203 203 195 197 194 190 194 193 188 184 188 189 191 198 205 209 207 205 203 210 213 217 206 216
270 280 271 265 266 245 247 257 259 260 270 230 189 200 243 194 191 181 186 189 192 196 204 196 214 209 196 200 199 201 197 198 199 193 192 190 193 196 200 205 207 208 210 208 213 219 221 222 215
226 230 250 240 241 243 241 242 239 255 263 49 125 188 218 170 173 182 175 182 189 193 203 198 205 203 202 198 206 204 205 203 202 204 201 197 195 199 205 212 214 218 218 219 219 228 227 227 229
227 225 231 197 243 241 226 236 241 226 234 106 56 289 193 172 175 187 186 187 190 194 199 199 202 202 205 204 204 203 206 212 212 212 212 207 209 209 209 214 218 229 226 227 224 227 233 234 235
186 219 247 275 289 284 261 206 222 167 138 182 191 178 208 178 184 194 196 190 192 196 202 202 200 206 205 208 207 210 209 210 213 219 219 219 219 217 219 221 224 225 228 229 230 234 234 235 242
249 224 241 227 242 215 293 163 193 207 198 162 113 99 29 334 282 184 191 194 192 199 204 207 207 200 220 211 210 212 210 209 216 218 223 225 224 225 222 223 226 224 230 228 230 236 237 238 244
227 239 226 246 225 191 183 250 133 0 85 83 55 48 38 68 320 191 185 191 190 197 200 209 206 207 207 227 217 213 213 215 212 217 223 224 227 227 226 227 228 231 230 234 237 241 244 241 242
267 244 233 242 210 249 256 261 108 58 34 26 19 43 36 54 36 332 178 186 185 194 201 211 213 207 213 224 228 224 217 217 214 220 221 223 229 228 228 227 229 235 239 238 236 243 246 243 245
Height
1493 1495 1495 1496 1498 1482 1466 1447 1437 1447 1450 1454 1460 1464 1465 1465 1465 1478 1478 1477 1477 1478 1476 1478 1481 1483 1486 1489 1492 1496 1498 1499 1502 1503 1506 1509 1511 1514 1517 1519 1520 1523 1525 1529 1532 1535 1538 1541 1543
1489 1494 1497 1493 1493 1483 1457 1437 1446 1445 1451 1458 1463 1465 1465 1465 1468 1473 1475 1476 1476 1479 1476 1477 1479 1482 1485 1487 1491 1494 1497 1499 1501 1503 1505 1509 1511 1515 1518 1520 1522 1524 1526 1528 1532 1536 1540 1542 1545
1489 1491 1494 1487 1480 1477 1457 1440 1444 1448 1454 1460 1461 1461 1463 1465 1470 1474 1474 1475 1475 1477 1479 1476 1478 1480 1482 1485 1489 1494 1496 1499 1501 1503 1506 1509 1511 1515 1520 1523 1524 1525 1527 1529 1532 1536 1540 1545 1549
1489 1492 1490 1482 1476 1455 1445 1436 1443 1450 1453 1457 1461 1462 1463 1466 1469 1471 1473 1473 1474 1474 1477 1475 1477 1479 1480 1482 1487 1492 1495 1497 1499 1501 1504 1507 1512 1516 1520 1524 1526 1526 1528 1529 1532 1538 1542 1546 1552
1488 1484 1480 1473 1463 1450 1436 1439 1446 1451 1452 1456 1460 1461 1463 1466 1467 1468 1471 1471 1471 1474 1474 1473 1475 1476 1479 1481 1485 1487 1493 1494 1496 1502 1502 1505 1510 1512 1518 1523 1527 1527 1529 1530 1534 1539 1543 1548 1552
1484 1479 1479 1469 1453 1435 1431 1438 1446 1451 1452 1454 1455 1459 1463 1465 1467 1466 1467 1468 1469 1470 1470 1471 1472 1474 1476 1479 1484 1485 1489 1492 1497 1498 1505 1508 1511 1513 1515 1522 1526 1529 1530 1533 1535 1539 1547 1549 1552
1477 1470 1467 1459 1450 1438 1430 1436 1446 1450 1452 1451 1455 1458 1461 1464 1465 1464 1466 1466 1466 1465 1466 1467 1468 1469 1473 1477 1479 1479 1481 1454 1493 1494 1504 1510 1514 1515 1518 1520 1525 1529 1532 1535 1538 1541 1548 1550 1553
1475 1470 1462 1454 1450 1444 1431 1438 1445 1448 1450 1453 1455 1456 1459 1462 1462 1462 1464 1462 1463 1462 1463 1464 1464 1465 1469 1473 1476 1480 1484 1488 1482 1487 1500 1509 1514 1517 1519 1520 1525 1531 1534 1537 1541 1542 1548 1551 1555
1472 1468 1461 1452 1447 1435 1431 1438 1444 1447 1449 1451 1452 1454 1457 1458 1461 1462 1462 1460 1459 1460 1460 1461 1460 1463 1469 1470 1478 1481 1477 1484 1461 1487 1494 1509 1513 1516 1520 1522 1525 1532 1534 1538 1543 1545 1549 1554 1558
1466 1460 1453 1445 1436 1431 1429 1434 1440 1443 1444 1446 1446 1448 1450 1455 1458 1460 1460 1459 1457 1456 1457 1458 1458 1461 1466 1472 1476 1477 1473 1469 1477 1489 1496 1506 1511 1517 1520 1524 1525 1532 1535 1541 1544 1548 1551 1556 1559
1459 1453 1449 1441 1433 1432 1433 1432 1436 1440 1443 1445 1445 1447 1450 1453 1455 1457 1458 1458 1455 1453 1454 1456 1457 1460 1464 1468 1471 1472 1472 1472 1477 1487 1495 1503 1510 1517 1520 1523 1528 1531 1537 1541 1545 1548 1553 1557 1560
1454 1448 1447 1442 1437 1434 1436 1435 1435 1437 1439 1442 1443 1444 1449 1450 1453 1455 1455 1456 1453 1451 1452 1453 1455 1458 1462 1466 1470 1470 1472 1474 1478 1485 1494 1503 1510 1512 1520 1523 1528 1530 1537 1541 1545 1549 1554 1558 1561
1446 1442 1441 1439 1436 1434 1434 1434 1435 1435 1438 1439 1439 1441 1446 1448 1450 1452 1452 1452 1451 1450 1451 1452 1454 1457 1460 1464 1466 1468 1472 1474 1480 1482 1495 1501 1506 1512 1518 1522 1527 1532 1538 1543 1546 1550 1556 1559 1561
1442 1438 1435 1434 1432 1430 1431 1431 1434 1434 1435 1434 1435 1439 1443 1445 1447 1448 1449 1451 1450 1449 1450 1451 1453 1455 1458 1461 1465 1468 1470 1473 1480 1485 1494 1502 1507 1512 1518 1521 1527 1532 1538 1543 1547 1551 1556 1559 1562
1439 1436 1430 1426 1428 1428 1427 1427 1426 1428 1429 1429 1430 1434 1439 1442 1445 1446 1448 1448 1447 1448 1449 1450 1452 1454 1457 1462 1464 1466 1470 1474 1480 1486 1495 1501 1504 1512 1516 1520 1526 1532 1538 1543 1546 1552 1556 1560 1562
1435 1435 1437 1423 1422 1421 1424 1426 1418 1418 1418 1421 1426 1429 1434 1438 1442 1444 1445 1447 1445 1447 1447 1449 1451 1454 1456 1458 1461 1467 1471 1475 1482 1488 1494 1498 1503 1511 1515 1520 1526 1532 1538 1542 1546 1550 1554 1558 1561
1438 1440 1431 1426 1414 1412 1414 1418 1413 1412 1410 1416 1422 1423 1426 1432 1437 1441 1442 1445 1445 1447 1446 1448 1450 1452 1455 1457 1460 1465 1470 1474 1480 1484 1490 1496 1501 1509 1515 1519 1525 1531 1536 1540 1544 1548 1553 1556 1560
1444 1436 1427 1418 1405 1402 1404 1406 1408 1409 1409 1414 1418 1419 1419 1424 1431 1436 1439 1442 1444 1445 1446 1446 1449 1451 1453 1457 1461 1464 1467 1470 1473 1479 1484 1493 1499 1508 1513 1519 1523 1529 1529 1536 1542 1547 1551 1554 1558
1431 1431 1429 1413 1396 1395 1400 1404 1401 1401 1403 1405 1410 1413 1416 1418 1425 1431 1435 1438 1442 1442 1445 1443 1447 1449 1452 1455 1458 1461 1466 1467 1471 1475 1484 1492 1499 1506 1512 1517 1521 1526 1530 1534 1540 1545 1549 1552 1556
1434 1440 1432 1413 1395 1398 1397 1401 1398 1396 1394 1395 1399 1403 1409 1413 1419 1426 1431 1435 1438 1439 1441 1443 1445 1448 1451 1454 1457 1461 1464 1468 1470 1477 1484 1490 1497 1504 1509 1514 1519 1525 1529 1533 1539 1543 1546 1548 1554
1429 1432 1427 1418 1401 1394 1400 1407 1401 1394 1390 1390 1394 1396 1402 1406 1411 1419 1426 1430 1434 1437 1437 1440 1442 1446 1450 1453 1456 1461 1465 1468 1473 1478 1484 1490 1496 1502 1507 1513 1519 1524 1528 1532 1536 1540 1542 1547 1550
1426 1422 1421 1415 1412 1416 1395 1414 1390 1383 1383 1384 1387 1391 1397 1402 1405 1410 1418 1425 1429 1434 1434 1438 1440 1443 1448 1451 1454 1458 1462 1466 1471 1477 1482 1488 1493 1500 1506 1512 1517 1521 1525 1529 1532 1536 1541 1545 1546
1426 1421 1423 1415 1411 1411 1404 1408 1394 1380 1380 1374 1377 1382 1388 1393 1399 1404 1411 1420 1426 1431 1431 1432 1437 1439 1444 1448 1452 1457 1462 1467 1473 1476 1480 1485 1490 1497 1502 1509 1512 1516 1521 1525 1528 1532 1537 1540 1542
1432 1435 1432 1418 1413 1419 1407 1406 1398 1386 1373 1367 1368 1375 1380 1385 1393 1400 1406 1415 1422 1426 1429 1432 1431 1436 1440 1443 1449 1454 1459 1462 1468 1473 1477 1482 1487 1493 1498 1503 1508 1512 1517 1520 1523 1528 1531 1532 1536
1429 1443 1443 1434 1424 1418 1399 1399 1389 1374 1366 1365 1370 1375 1378 1381 1390 1396 1403 1410 1417 1420 1423 1428 1431 1432 1435 1439 1444 1450 1456 1460 1464 1469 1474 1480 1484 1488 1493 1497 1501 1507 1512 1516 1518 1524 1526 1529 1531
1423 1435 1430 1438 1423 1409 1388 1393 1378 1361 1363 1367 1371 1373 1377 1381 1387 1393 1399 1406 1413 1416 1420 1424 1428 1430 1432 1435 1439 1444 1452 1457 1461 1465 1470 1475 1479 1483 1488 1491 1497 1501 1506 1509 1514 1518 1520 1523 1525
1423 1433 1412 1411 1418 1420 1387 1374 1361 1362 1365 1367 1371 1375 1378 1380 1384 1390 1396 1401 1408 1411 1415 1419 1424 1427 1430 1431 1436 1439 1444 1449 1455 1460 1465 1469 1474 1478 1483 1486 1490 1494 1498 1502 1507 1510 1512 1516 1518
1410 1408 1424 1412 1434 1427 1383 1373 1378 1363 1367 1365 1369 1373 1376 1378 1380 1382 1389 1395 1402 1408 1412 1416 1420 1423 1423 1427 1430 1434 1439 1443 1448 1453 1457 1461 1466 1472 1476 1480 1483 1488 1491 1495 1500 1501 1505 1508 1510
1410 1408 1416 1415 1410 1411 1408 1395 1370 1367 1365 1369 1372 1377 1378 1379 1380 1380 1386 1392 1398 1406 1410 1412 1417 1420 1423 1422 1426 1429 1432 1437 1442 1445 1448 1453 1458 1462 1467 1472 1476 1480 1484 1488 1490 1492 1496 1499 1501
1398 1405 1404 1417 1411 1400 1400 1394 1374 1378 1376 1377 1378 1378 1380 1382 1383 1383 1387 1391 1396 1403 1408 1409 1413 1417 1419 1420 1420 1423 1428 1431 1434 1437 1441 1446 1449 1454 1459 1464 1468 1471 1474 1478 1480 1483 1486 1489 1490